Back to catalog

STARLINK-32449

AliveCommunicationsVLEO
NORAD 61670·PAYLOAD·🇺🇸 United States

Launched Oct 26, 2024 from Cape Canaveral Space Force Station

Loading…

Next Passes (next 24 hours)

TLE

FreshSource: CelesTrak SupGP

Epoch: Sep 14, 2026, 20:59 UTC

1 61670C 24193K   26257.87479167  .00016942  00000+0  54496-3 0  2579
2 61670  53.1573 291.3451 0001245  93.2806 304.4106 15.31685228    11

Track STARLINK-32449 in real time with AllMySat

Download on the App Store